Back to catalog

HJS-6B

AliveScienceVLEO
NORAD 63429·PAYLOAD·🇨🇳 China

Launched Apr 1, 2025 from Jiuquan Satellite Launch Center

Loading…

Next Passes (next 24 hours)

TLE

FreshSource: Space-Track

Epoch: Sep 14, 2026, 14:43 UTC

1 63429U 25067B   26257.61388448  .00014123  00000-0  67440-3 0  9993
2 63429  54.9972 356.8385 0006397 169.2998 190.8158 15.19322657 81539

Track HJS-6B in real time with AllMySat

Download on the App Store